Location: ???????
(52.3000°N, 54.4667°E)
Time: 12:13:12
(UTC+00:00)

CSL-04 Debris - Pass Details

Date: 24 January 2020
Orbit: 828 x 848 km, 99.0° (Epoch: 17 February)

Event Time Altitude Azimuth Distance (km) Brightness Sun altitude
Rises 14:59:09 0° 170° (S) 3,357 7.3 -18.9°
Reaches altitude 10° 15:01:30 10° 173° (S) 2,428 6.6 -19.2°
Maximum altitude 15:06:52 69° 256° (WSW) 892 4.5 -20.0°
Drops below altitude 10° 15:12:17 10° 340° (NNW) 2,454 6.8 -20.9°
Sets 15:14:41 0° 343° (NNW) 3,395 7.5 -21.2°
